When you browse on this site, cookies collect data to enhance your experience and personalize the content and advertising you see.
Visit our Privacy Policy to learn more. By continuing to use the site, you agree to this use of cookies and data.
  • In Hungary
  • List of Countries
  • For 7 days
  • Water Temperature
  • Satellite Maps
  • Weather Map
  • News
  • Weather Widgets
  • user-avatar
    Login

    Hourly Weather San Felipe Ixtacuixtla

    Today, 15 February, Friday

    Time Temperature Precipitation Wind Pressure Humidity
    00:00 +14°C° 0 mm 0 mps 577 mmHg 71%
    01:00 +14°C° 0 mm 0 mps 577 mmHg 72%
    02:00 +13°C° 0 mm 0 mps 577 mmHg 73%
    03:00 +13°C° 0 mm 0 mps 577 mmHg 74%
    04:00 +13°C° 0 mm 0 mps 577 mmHg 75%
    05:00 +13°C° 0 mm 1 mps 576 mmHg 74%
    06:00 +15°C° 0 mm 1 mps 577 mmHg 68%
    07:00 +15°C° 0 mm 0 mps 578 mmHg 61%
    08:00 +16°C° 0 mm 0 mps 579 mmHg 55%
    09:00 +20°C° 0 mm 1 mps 580 mmHg 49%
    10:00 +22°C° 0 mm 1 mps 580 mmHg 43%
    11:00 +24°C° 0 mm 2 mps 581 mmHg 36%
    12:00 +25°C° 0 mm 2 mps 581 mmHg 34%
    13:00 +26°C° 0 mm 2 mps 580 mmHg 32%
    14:00 +26°C° 0 mm 3 mps 580 mmHg 30%
    15:00 +25°C° 0 mm 3 mps 580 mmHg 33%
    16:00 +24°C° 0 mm 3 mps 579 mmHg 35%
    17:00 +24°C° 0 mm 3 mps 579 mmHg 38%
    18:00 +21°C° 0 mm 3 mps 578 mmHg 43%
    19:00 +19°C° 0 mm 2 mps 578 mmHg 48%
    20:00 +19°C° 0 mm 1 mps 578 mmHg 54%
    21:00 +18°C° 0 mm 1 mps 578 mmHg 56%
    22:00 +18°C° 0 mm 1 mps 577 mmHg 57%
    23:00 +15°C° 0 mm 0 mps 577 mmHg 59%

    Tomorrow, 16 February, Saturday

    Time Temperature Precipitation Wind Pressure Humidity
    00:00 +15°C° 0 mm 0 mps 577 mmHg 61%
    01:00 +14°C° 0 mm 0 mps 577 mmHg 62%
    02:00 +14°C° 0 mm 0 mps 576 mmHg 63%
    03:00 +14°C° 0 mm 0 mps 576 mmHg 63%
    04:00 +13°C° 0 mm 0 mps 576 mmHg 63%
    05:00 +14°C° 0 mm 1 mps 576 mmHg 63%
    06:00 +15°C° 0 mm 0 mps 577 mmHg 57%
    07:00 +17°C° 0 mm 0 mps 578 mmHg 51%
    08:00 +18°C° 0 mm 0 mps 579 mmHg 45%
    09:00 +22°C° 0 mm 1 mps 579 mmHg 40%
    10:00 +24°C° 0 mm 1 mps 580 mmHg 35%
    11:00 +26°C° 0 mm 1 mps 580 mmHg 31%
    12:00 +26°C° 0 mm 2 mps 580 mmHg 30%
    13:00 +27°C° 0 mm 3 mps 579 mmHg 29%
    14:00 +27°C° 0 mm 3 mps 579 mmHg 28%
    15:00 +26°C° 0 mm 4 mps 578 mmHg 32%
    16:00 +25°C° 0 mm 4 mps 578 mmHg 35%
    17:00 +23°C° 0 mm 4 mps 577 mmHg 39%
    18:00 +21°C° 0 mm 4 mps 577 mmHg 42%
    19:00 +20°C° 0 mm 3 mps 577 mmHg 45%
    20:00 +18°C° 0 mm 2 mps 577 mmHg 47%
    21:00 +18°C° 0 mm 2 mps 576 mmHg 47%
    22:00 +18°C° 0 mm 1 mps 576 mmHg 46%
    23:00 +18°C° 0 mm 1 mps 576 mmHg 45%

    Day after tomorrow, 17 February, Sunday

    Time Temperature Precipitation Wind Pressure Humidity
    00:00 +16°C° 0 mm 1 mps 576 mmHg 44%
    01:00 +16°C° 0 mm 1 mps 576 mmHg 43%
    02:00 +15°C° 0 mm 1 mps 575 mmHg 42%
    03:00 +15°C° 0 mm 1 mps 575 mmHg 42%
    04:00 +15°C° 0 mm 1 mps 575 mmHg 43%
    05:00 +14°C° 0 mm 1 mps 575 mmHg 43%
    06:00 +16°C° 0 mm 1 mps 576 mmHg 40%
    07:00 +18°C° 0 mm 1 mps 577 mmHg 36%
    08:00 +20°C° 0 mm 1 mps 579 mmHg 33%
    09:00 +21°C° 0 mm 2 mps 579 mmHg 31%
    10:00 +24°C° 0 mm 2 mps 580 mmHg 28%
    11:00 +26°C° 0 mm 3 mps 581 mmHg 25%
    12:00 +26°C° 0 mm 3 mps 580 mmHg 24%
    13:00 +27°C° 0 mm 4 mps 580 mmHg 22%
    14:00 +27°C° 0 mm 4 mps 579 mmHg 21%
    15:00 +26°C° 0 mm 4 mps 579 mmHg 23%
    16:00 +25°C° 0 mm 4 mps 578 mmHg 25%
    17:00 +23°C° 0 mm 4 mps 578 mmHg 28%
    18:00 +21°C° 0 mm 3 mps 578 mmHg 31%
    19:00 +19°C° 0 mm 2 mps 578 mmHg 35%
    20:00 +18°C° 0 mm 1 mps 578 mmHg 38%
    21:00 +18°C° 0 mm 1 mps 578 mmHg 40%
    22:00 +16°C° 0 mm 1 mps 577 mmHg 41%
    23:00 +16°C° 0 mm 1 mps 577 mmHg 43%

    18 February, Monday

    Time Temperature Precipitation Wind Pressure Humidity
    00:00 +15°C° 0 mm 1 mps 577 mmHg 45%
    01:00 +15°C° 0 mm 1 mps 577 mmHg 47%
    02:00 +13°C° 0 mm 0 mps 576 mmHg 49%
    03:00 +13°C° 0 mm 0 mps 576 mmHg 50%
    04:00 +13°C° 0 mm 0 mps 576 mmHg 50%
    05:00 +12°C° 0 mm 0 mps 576 mmHg 51%
    06:00 +15°C° 0 mm 1 mps 577 mmHg 46%
    07:00 +18°C° 0 mm 1 mps 579 mmHg 42%
    08:00 +19°C° 0 mm 1 mps 580 mmHg 37%
    09:00 +20°C° 0 mm 2 mps 580 mmHg 34%
    10:00 +22°C° 0 mm 3 mps 581 mmHg 31%
    11:00 +25°C° 0 mm 4 mps 581 mmHg 28%
    12:00 +25°C° 0 mm 4 mps 581 mmHg 27%
    13:00 +26°C° 0 mm 5 mps 580 mmHg 26%
    14:00 +26°C° 0 mm 5 mps 580 mmHg 25%
    15:00 +25°C° 0 mm 5 mps 579 mmHg 27%
    16:00 +23°C° 0 mm 5 mps 578 mmHg 30%
    17:00 +21°C° 0 mm 4 mps 578 mmHg 33%
    18:00 +20°C° 0 mm 3 mps 578 mmHg 36%
    19:00 +18°C° 0 mm 2 mps 578 mmHg 40%
    20:00 +18°C° 0 mm 1 mps 577 mmHg 43%
    21:00 +16°C° 0 mm 1 mps 577 mmHg 45%
    22:00 +16°C° 0 mm 1 mps 577 mmHg 47%
    23:00 +15°C° 0 mm 1 mps 577 mmHg 48%

    19 February, Tuesday

    Time Temperature Precipitation Wind Pressure Humidity
    00:00 +15°C° 0 mm 1 mps 576 mmHg 49%
    01:00 +14°C° 0 mm 1 mps 576 mmHg 49%
    02:00 +14°C° 0 mm 1 mps 575 mmHg 50%
    03:00 +13°C° 0 mm 1 mps 575 mmHg 48%
    04:00 +13°C° 0 mm 1 mps 575 mmHg 47%
    05:00 +12°C° 0 mm 1 mps 575 mmHg 45%
    06:00 +14°C° 0 mm 2 mps 576 mmHg 41%
    07:00 +15°C° 0 mm 2 mps 577 mmHg 37%
    08:00 +17°C° 0 mm 2 mps 578 mmHg 33%
    09:00 +19°C° 0 mm 3 mps 579 mmHg 29%
    10:00 +21°C° 0 mm 4 mps 579 mmHg 25%
    11:00 +23°C° 0 mm 5 mps 580 mmHg 21%
    12:00 +23°C° 0 mm 5 mps 579 mmHg 19%
    13:00 +23°C° 0 mm 6 mps 579 mmHg 18%
    14:00 +24°C° 0 mm 6 mps 578 mmHg 16%
    15:00 +23°C° 0 mm 5 mps 577 mmHg 19%
    16:00 +21°C° 0 mm 5 mps 577 mmHg 21%
    17:00 +20°C° 0 mm 4 mps 576 mmHg 24%
    18:00 +19°C° 0 mm 3 mps 576 mmHg 29%
    19:00 +17°C° 0 mm 2 mps 576 mmHg 33%
    20:00 +16°C° 0 mm 2 mps 576 mmHg 38%
    21:00 +15°C° 0 mm 1 mps 576 mmHg 41%
    22:00 +15°C° 0 mm 1 mps 576 mmHg 44%
    23:00 +14°C° 0 mm 1 mps 575 mmHg 47%

    20 February, Wednesday

    Time Temperature Precipitation Wind Pressure Humidity
    00:00 +14°C° 0 mm 1 mps 575 mmHg 49%
    01:00 +13°C° 0 mm 1 mps 574 mmHg 51%
    02:00 +13°C° 0 mm 1 mps 574 mmHg 52%
    03:00 +12°C° 0 mm 1 mps 574 mmHg 53%
    04:00 +12°C° 0 mm 1 mps 574 mmHg 53%
    05:00 +11°C° 0 mm 1 mps 573 mmHg 53%
    06:00 +13°C° 0 mm 1 mps 574 mmHg 47%
    07:00 +14°C° 0 mm 1 mps 575 mmHg 42%
    08:00 +16°C° 0 mm 2 mps 576 mmHg 36%
    09:00 +18°C° 0 mm 2 mps 577 mmHg 31%
    10:00 +20°C° 0 mm 3 mps 578 mmHg 26%
    11:00 +22°C° 0 mm 3 mps 578 mmHg 21%
    12:00 +22°C° 0 mm 4 mps 578 mmHg 20%
    13:00 +23°C° 0 mm 5 mps 577 mmHg 19%
    14:00 +25°C° 0 mm 5 mps 577 mmHg 19%
    15:00 +22°C° 0 mm 5 mps 577 mmHg 21%
    16:00 +21°C° 0 mm 5 mps 576 mmHg 24%
    17:00 +20°C° 0 mm 5 mps 576 mmHg 27%
    18:00 +19°C° 0 mm 4 mps 576 mmHg 30%
    19:00 +17°C° 0 mm 4 mps 576 mmHg 34%
    20:00 +14°C° 0 mm 3 mps 575 mmHg 38%
    21:00 +15°C° 0 mm 2 mps 575 mmHg 40%
    22:00 +14°C° 0 mm 2 mps 575 mmHg 41%
    23:00 +14°C° 0 mm 2 mps 575 mmHg 43%
    Show more